Location: Newark
(45.8944°N, 12.5886°E)
Time: 04:39:02
(UTC+00:00)

PRISM - Visible Passes

Search period start: 02 April 2020 00:00
Search period end: 12 April 2020 00:00
Orbit: 566 x 586 km, 98.1° (Epoch: 01 April)

Date Brightness Start Highest point End Pass type
(mag) Time Alt. Az. Time Alt. Az. Time Alt. Az.
02 Apr ? 00:15:09 10° NNE 00:15:36 12° NE 00:15:36 12° NE visible
02 Apr ? 01:50:32 10° N 01:51:52 17° NNW 01:51:52 17° NNW visible
03 Apr ? 00:18:51 10° NNE 00:19:31 14° NE 00:19:31 14° NE visible
03 Apr ? 01:54:23 10° NNW 01:55:47 17° NNW 01:55:47 17° NNW visible
04 Apr ? 00:22:34 10° NNE 00:23:27 15° NE 00:23:27 15° NE visible
04 Apr ? 01:58:14 10° NNW 01:59:42 17° NNW 01:59:42 17° NNW visible
05 Apr ? 00:26:18 10° NNE 00:27:22 17° NE 00:27:22 17° NE visible
05 Apr ? 02:02:06 10° NNW 02:03:37 17° NW 02:03:37 17° NW visible
06 Apr ? 00:30:01 10° NNE 00:31:17 19° NNE 00:31:17 19° NNE visible
06 Apr ? 02:05:58 10° NNW 02:07:32 16° NW 02:07:32 16° NW visible
07 Apr ? 00:33:45 10° NNE 00:35:11 20° NNE 00:35:11 20° NNE visible
07 Apr ? 02:09:51 10° NNW 02:11:27 16° NW 02:11:27 16° NW visible
08 Apr ? 00:37:28 10° NNE 00:39:06 22° NNE 00:39:06 22° NNE visible
08 Apr ? 02:13:44 10° NNW 02:15:22 15° NW 02:15:22 15° NW visible
09 Apr ? 00:41:12 10° NNE 00:43:01 24° NNE 00:43:01 24° NNE visible
09 Apr ? 02:17:39 10° NNW 02:19:16 15° NW 02:19:16 15° NW visible
10 Apr ? 00:44:57 10° NNE 00:46:55 27° NNE 00:46:55 27° NNE visible
10 Apr ? 02:21:35 10° NNW 02:23:11 14° NW 02:23:11 14° NW visible
11 Apr ? 00:48:42 10° NNE 00:50:49 29° NNE 00:50:49 29° NNE visible
11 Apr ? 02:25:33 10° NNW 02:27:05 13° NW 02:27:05 13° NW visible
